Change the Weather History Date:

Tuesday, October 30, 2012

  Actual Average Record
Temperature  
Mean Temperature 54 °F -  
Max Temperature 60 °F 71 °F 80 °F (2013)
Min Temperature 48 °F 43 °F 30 °F (2011)
Degree Days  
Heating Degree Days 11    
Growing Degree Days 4 (Base 50)    
Moisture  
Dew Point 37 °F    
Average Humidity 54    
Maximum Humidity 71    
Minimum Humidity 42    
Precipitation  
Precipitation 0.00 in - - ()
Sea Level Pressure  
Sea Level Pressure 29.57 in    
Wind  
Wind Speed 8 mph (WSW)    
Max Wind Speed 15 mph    
Max Gust Speed 23 mph    
Visibility 9 miles    
Events      
Averages and records for this station are not official NWS values.
T = Trace of Precipitation, MM = Missing Value Source: NWS Daily Summary

Daily Weather History Graph

Daily Weather History Graph

Search for Another Location

Airport or City:

Trip Planner

Search our weather history database for the weather conditions in past years. The results will help you decide how hot, cold, wet, or windy it might be!

Date:

Astronomy

Oct. 30, 2012 Rise Set
Actual Time 7:37 AM EDT 6:28 PM EDT
Civil Twilight 7:11 AM EDT 6:54 PM EDT
Nautical Twilight 6:42 AM EDT 7:23 PM EDT
Astronomical Twilight 6:12 AM EDT 7:52 PM EDT
Moon 7:01 PM EDT 8:18 AM EDT
Length of Visible Light 11h 42m
Length of Day
10h 51m
Full, 99% of the Moon is Illuminated
Oct 30
Full
Nov 6
Last Quarter
Nov 13
New
Nov 20
First Quarter
Nov 28
Full

Hourly Weather History & Observations

Time (EDT) Temp. Dew Point Humidity Pressure Visibility Wind Dir Wind Speed Gust Speed Precip Events Conditions
12:15 AM 51.8 °F 35.6 °F 54% 29.55 in 10.0 mi West 12.7 mph 17.3 mph N/A   Clear
12:35 AM 51.8 °F 35.6 °F 54% 29.55 in 10.0 mi WSW 6.9 mph 16.1 mph N/A   Clear
12:55 AM 51.8 °F 35.6 °F 54% 29.54 in 10.0 mi WSW 6.9 mph - N/A   Clear
1:15 AM 51.8 °F 35.6 °F 54% 29.54 in 10.0 mi WSW 6.9 mph - N/A   Clear
1:35 AM 50.0 °F 35.6 °F 58% 29.53 in 10.0 mi SW 4.6 mph - N/A   Clear
1:55 AM 50.0 °F 35.6 °F 58% 29.53 in 10.0 mi SW 5.8 mph - N/A   Clear
2:15 AM 50.0 °F 35.6 °F 58% 29.52 in 10.0 mi SW 4.6 mph - N/A   Clear
2:35 AM 50.0 °F 37.4 °F 62% 29.52 in 10.0 mi SW 6.9 mph - N/A   Clear
2:55 AM 50.0 °F 35.6 °F 58% 29.52 in 10.0 mi SSW 4.6 mph - N/A   Clear
3:15 AM 50.0 °F 35.6 °F 58% 29.51 in 10.0 mi SW 4.6 mph - N/A   Clear
3:35 AM 50.0 °F 37.4 °F 62% 29.51 in 10.0 mi WSW 5.8 mph - N/A   Clear
3:55 AM 50.0 °F 37.4 °F 62% 29.51 in 10.0 mi SW 8.1 mph - N/A   Clear
4:35 AM 50.0 °F 37.4 °F 62% 29.50 in 10.0 mi WSW 6.9 mph - N/A   Clear
4:55 AM 50.0 °F 37.4 °F 62% 29.50 in 10.0 mi WSW 6.9 mph - N/A   Clear
5:15 AM 50.0 °F 37.4 °F 62% 29.50 in 10.0 mi WSW 8.1 mph - N/A   Clear
5:35 AM 50.0 °F 35.6 °F 58% 29.51 in 10.0 mi WSW 6.9 mph - N/A   Clear
5:55 AM 50.0 °F 37.4 °F 62% 29.51 in 10.0 mi WSW 5.8 mph - N/A   Clear
6:15 AM 50.0 °F 37.4 °F 62% 29.52 in 10.0 mi WSW 5.8 mph - N/A   Clear
6:35 AM 50.0 °F 37.4 °F 62% 29.52 in 10.0 mi WSW 4.6 mph - N/A   Clear
6:55 AM 48.2 °F 37.4 °F 66% 29.53 in 10.0 mi SW 4.6 mph - N/A   Clear
7:15 AM 48.2 °F 35.6 °F 62% 29.53 in 10.0 mi SW 4.6 mph - N/A   Clear
7:35 AM 48.2 °F 35.6 °F 62% 29.54 in 10.0 mi WSW 4.6 mph - N/A   Clear
7:55 AM 50.0 °F 35.6 °F 58% 29.54 in 10.0 mi WSW 5.8 mph - N/A   Clear
8:15 AM 50.0 °F 35.6 °F 58% 29.55 in 10.0 mi WSW 5.8 mph - N/A   Clear
8:35 AM 50.0 °F 35.6 °F 58% 29.55 in 10.0 mi SW 4.6 mph - N/A   Clear
8:55 AM 50.0 °F 35.6 °F 58% 29.56 in 10.0 mi WSW 4.6 mph - N/A   Clear
9:35 AM 51.8 °F 35.6 °F 54% 29.56 in 10.0 mi SW 8.1 mph - N/A   Clear
9:55 AM 51.8 °F 35.6 °F 54% 29.57 in 10.0 mi WSW 6.9 mph - N/A   Clear
10:15 AM 51.8 °F 35.6 °F 54% 29.57 in 10.0 mi SW 6.9 mph - N/A   Clear
10:35 AM 51.8 °F 35.6 °F 54% 29.57 in 10.0 mi WSW 5.8 mph - N/A   Clear
10:55 AM 51.8 °F 35.6 °F 54% 29.57 in 10.0 mi WSW 9.2 mph - N/A   Clear
11:35 AM 53.6 °F 35.6 °F 51% 29.57 in 10.0 mi WSW 10.4 mph - N/A   Clear
11:55 AM 53.6 °F 35.6 °F 51% 29.57 in 7.0 mi WSW 8.1 mph - N/A   Clear
12:15 PM 55.4 °F 35.6 °F 47% 29.57 in 4.0 mi SW 9.2 mph 17.3 mph N/A   Haze
12:55 PM 55.4 °F 37.4 °F 51% 29.56 in 7.0 mi West 6.9 mph 19.6 mph N/A   Clear
1:15 PM 57.2 °F 37.4 °F 48% 29.55 in 5.0 mi SW 9.2 mph - N/A   Haze
1:35 PM 59.0 °F 37.4 °F 45% 29.55 in 5.0 mi SW 10.4 mph 16.1 mph N/A   Haze
1:55 PM 59.0 °F 39.2 °F 48% 29.54 in 5.0 mi WSW 9.2 mph 16.1 mph N/A   Haze
2:15 PM 59.0 °F 39.2 °F 48% 29.54 in 4.0 mi WSW 9.2 mph 17.3 mph N/A   Haze
2:35 PM 59.0 °F 39.2 °F 48% 29.54 in 7.0 mi WSW 12.7 mph 23.0 mph N/A   Clear
2:55 PM 59.0 °F 39.2 °F 48% 29.54 in 4.0 mi WSW 9.2 mph 18.4 mph N/A   Haze
3:35 PM 59.0 °F 37.4 °F 45% 29.55 in - West 11.5 mph 18.4 mph N/A   Clear
3:55 PM 59.0 °F 37.4 °F 45% 29.55 in - WSW 12.7 mph 18.4 mph N/A   Clear
4:15 PM 60.8 °F 37.4 °F 42% 29.55 in - WSW 15.0 mph 19.6 mph N/A   Clear
4:35 PM 60.8 °F 37.4 °F 42% 29.55 in - WSW 9.2 mph - N/A   Clear
4:55 PM 60.8 °F 37.4 °F 42% 29.56 in - WSW 12.7 mph 17.3 mph N/A   Clear
5:35 PM 60.8 °F 37.4 °F 42% 29.56 in - SW 6.9 mph - N/A   Clear
5:55 PM 59.0 °F 37.4 °F 45% 29.58 in 10.0 mi WSW 6.9 mph - N/A   Clear
6:15 PM 59.0 °F 35.6 °F 42% 29.59 in 7.0 mi WSW 5.8 mph - N/A   Clear
6:35 PM 57.2 °F 37.4 °F 48% 29.60 in 10.0 mi West 5.8 mph - N/A   Clear
7:15 PM 55.4 °F 35.6 °F 47% 29.63 in 10.0 mi West 12.7 mph 18.4 mph N/A   Clear
7:35 PM 55.4 °F 35.6 °F 47% 29.64 in 5.0 mi West 15.0 mph 21.9 mph N/A   Haze
8:15 PM 55.4 °F 35.6 °F 47% 29.66 in 5.0 mi West 12.7 mph 19.6 mph N/A   Haze
8:35 PM 55.4 °F 35.6 °F 47% 29.67 in 7.0 mi West 8.1 mph - N/A   Clear
8:55 PM 55.4 °F 35.6 °F 47% 29.67 in 10.0 mi WSW 8.1 mph - N/A   Clear
9:15 PM 53.6 °F 37.4 °F 54% 29.68 in 10.0 mi West 6.9 mph - N/A   Clear
9:35 PM 53.6 °F 37.4 °F 54% 29.69 in 10.0 mi West 6.9 mph - N/A   Clear
9:55 PM 53.6 °F 37.4 °F 54% 29.70 in 10.0 mi West 6.9 mph - N/A   Clear
10:15 PM 53.6 °F 37.4 °F 54% 29.71 in 10.0 mi West 4.6 mph - N/A   Clear
10:35 PM 51.8 °F 37.4 °F 58% 29.71 in 10.0 mi WSW 3.5 mph - N/A   Clear
10:55 PM 51.8 °F 37.4 °F 58% 29.71 in 10.0 mi WSW 3.5 mph - N/A   Clear
11:15 PM 51.8 °F 37.4 °F 58% 29.72 in 10.0 mi Calm Calm - N/A   Clear
11:35 PM 51.8 °F 39.2 °F 62% 29.72 in 10.0 mi Calm Calm - N/A   Clear
11:55 PM 50.0 °F 41.0 °F 71% 29.72 in 10.0 mi Calm Calm - N/A   Clear